Hourly Data Report for September 27, 2017

All times are specified in Local Standard Time (LST). Add 1 hour to adjust for Daylight Saving Time where and when it is observed.

RESOLUTE BAY A
NUNAVUT

74°43'01.000" N
94°58'10.000" W
67.70 m
2403498
71924
YRB

Download Data

Hourly Data (September 2017)
Hourly Data Report for September 27, 2017
Temp Definition
°C
Dew Point Temp Definition
°C
Rel Hum Definition
%
Wind Dir Definition
10's deg

Wind Spd Definition
km/h
Visibility Definition
km
Stn Press Definition
kPa
Hmdx Definition


Wind Chill Definition


Weather Definition


TIME
00:00 Legend Double Dagger -2.4 -3.0 96 14 43 1.0 99.57   -11 Snow,Blowing Snow
01:00 Legend Double Dagger -2.1 -2.6 96 14 45 1.0 99.54   -11 Snow,Blowing Snow
02:00 Legend Double Dagger -2.0 -2.6 96 14 39 1.6 99.50   -10 Snow,Blowing Snow
03:00 Legend Double Dagger -1.9 -2.4 97 14 39 1.0 99.45   -10 Snow,Blowing Snow
04:00 Legend Double Dagger -2.0 -2.4 97 14 42 1.0 99.41   -10 Snow,Blowing Snow
05:00 Legend Double Dagger -1.7 -2.1 97 15 35 4.8 99.38   -9 Snow,Blowing Snow
06:00 Legend Double Dagger -1.6 -2.1 97 19 15 0.6 99.38   -6 Snow,Freezing Fog
07:00 Legend Double Dagger -2.1 -2.5 97 21 10 1.0 99.39   -6 Snow,Fog
08:00 Legend Double Dagger -2.4 -2.9 96 23 18 1.0 99.38   -8 Snow,Fog
09:00 Legend Double Dagger -2.6 -3.1 96 22 12 1.0 99.39   -7 Snow,Fog
10:00 Legend Double Dagger -2.7 -3.2 96 28 19 1.0 99.39   -8 Snow,Fog
11:00 Legend Double Dagger -3.0 -3.6 96 29 19 2.4 99.40   -9 Snow,Fog
12:00 Legend Double Dagger -3.5 -4.2 95 31 22 2.4 99.43   -10 Snow,Fog
13:00 Legend Double Dagger -3.7 -4.6 94 31 24 2.4 99.44   -11 Snow,Fog
14:00 Legend Double Dagger -4.5 -5.6 92 32 32 2.8 99.50   -13 Snow,Fog
15:00 Legend Double Dagger -5.6 -6.8 91 33 35 1.6 99.56   -14 Snow,Fog
16:00 Legend Double Dagger -5.8 -7.1 91 33 36 1.0 99.58   -15 Snow,Blowing Snow
17:00 Legend Double Dagger -6.5 -7.7 91 32 40 1.0 99.63   -16 Snow,Blowing Snow
18:00 Legend Double Dagger -7.0 -8.4 90 33 40 1.0 99.65   -17 Snow,Blowing Snow
19:00 Legend Double Dagger -7.2 -8.7 89 33 45 1.0 99.67   -18 Snow,Blowing Snow
20:00 Legend Double Dagger -7.7 -9.2 89 33 52 1.0 99.70   -19 Snow,Blowing Snow
21:00 Legend Double Dagger -7.9 -9.5 89 33 54 1.0 99.71   -19 Snow,Blowing Snow
22:00 Legend Double Dagger -8.1 -9.7 88 33 50 1.0 99.75   -19 Snow,Blowing Snow
23:00 Legend Double Dagger -8.3 -9.9 88 32 54 1.0 99.77   -20 Snow,Blowing Snow

Notes on Data Quality.

Legend

  • E = Estimated
  • M = Missing
  • NA = Not Available
  • ‡ = Partner data that is not subject to review by the National Climate Archives
Date modified: